Location: Newark
(18.4314°N, 64.6231°W)
Time: 17:09:42
(UTC+00:00)

Envisat - Visible Passes

Search period start: 21 July 2019 00:00
Search period end: 31 July 2019 00:00
Orbit: 764 x 766 km, 98.1° (Epoch: 21 July)

Date Brightness Start Highest point End Pass type
(mag) Time Alt. Az. Time Alt. Az. Time Alt. Az.
21 Jul 5.3 23:42:40 10° SSW 23:46:44 24° W 23:50:48 10° NW visible
24 Jul 5.9 00:10:35 10° WSW 00:12:19 12° W 00:14:02 10° WNW visible
24 Jul 4.8 23:30:59 10° SSW 23:35:28 32° W 23:39:59 10° NW visible
26 Jul 5.7 23:57:58 10° SW 00:01:02 16° W 00:04:06 10° WNW visible
27 Jul 4.3 23:19:26 10° S 23:24:13 43° W 23:29:01 10° NNW visible
29 Jul 5.5 23:45:56 10° SSW 23:49:45 22° W 23:53:36 10° NW visible
30 Jul 3.7 23:08:01 10° S 23:12:59 59° W 23:17:59 10° NNW visible
